Weather History for Wharton, TX

Change the Weather History Date:

Saturday, February 23, 2013

  Actual Average (KPSX) Record (KPSX)
Temperature  
Mean Temperature 56 °F -  
Max Temperature 68 °F 66 °F 81 °F (1946)
Min Temperature 44 °F 46 °F 31 °F (1967)
Degree Days  
Heating Degree Days 9    
Growing Degree Days 6 (Base 50)    
Moisture  
Dew Point 42 °F    
Average Humidity 65    
Maximum Humidity 87    
Minimum Humidity 43    
Precipitation  
Precipitation 0.00 in - - ()
Sea Level Pressure  
Sea Level Pressure 29.96 in    
Wind  
Wind Speed 8 mph (North)    
Max Wind Speed 14 mph    
Max Gust Speed 18 mph    
Visibility 10 miles    
Events      
Averages and records for this station are not official NWS values.
T = Trace of Precipitation, MM = Missing Value Source: NWS Daily Summary

Daily Weather History Graph

Daily Weather History Graph

Search for Another Location

Airport:

Trip Planner

Search our weather history database for the weather conditions in past years. The results will help you decide how hot, cold, wet, or windy it might be!

Date:

Astronomy

Feb. 23, 2013 Rise Set
Actual Time 6:55 AM CST 6:20 PM CST
Civil Twilight 6:31 AM CST 6:44 PM CST
Nautical Twilight 6:04 AM CST 7:11 PM CST
Astronomical Twilight 5:36 AM CST 7:39 PM CST
Moon 4:36 PM CST 5:13 AM CST
Length of Visible Light 12h 12m
Length of Day
11h 24m
Waxing Gibbous, 95% of the Moon is Illuminated
Feb 23
Waxing Gibbous
Feb 25
Full
Mar 4
Last Quarter
Mar 11
New
Mar 19
First Quarter

Hourly Weather History & Observations

Time (CST) Temp. Windchill Dew Point Humidity Pressure Visibility Wind Dir Wind Speed Gust Speed Precip Events Conditions
12:15 AM 53.6 °F - 46.4 °F 77% 29.96 in 10.0 mi NNE 13.8 mph - N/A   Scattered Clouds
12:35 AM 53.6 °F - 44.6 °F 72% 29.95 in 10.0 mi NNE 12.7 mph 18.4 mph N/A   Clear
12:55 AM 53.6 °F - 46.4 °F 77% 29.95 in 10.0 mi North 12.7 mph 17.3 mph N/A   Mostly Cloudy
1:15 AM 53.6 °F - 44.6 °F 72% 29.96 in 10.0 mi NNW 11.5 mph - N/A   Overcast
1:35 AM 51.8 °F - 44.6 °F 76% 29.96 in 10.0 mi North 9.2 mph - N/A   Overcast
1:55 AM 51.8 °F - 42.8 °F 71% 29.96 in 10.0 mi North 9.2 mph - N/A   Overcast
2:15 AM 51.8 °F - 41.0 °F 67% 29.97 in 10.0 mi North 9.2 mph - N/A   Overcast
2:35 AM 51.8 °F - 41.0 °F 67% 29.96 in 10.0 mi NNW 10.4 mph - N/A   Overcast
2:55 AM 50.0 °F - 41.0 °F 71% 29.97 in 10.0 mi NNW 8.1 mph - N/A   Overcast
3:15 AM 50.0 °F - 39.2 °F 66% 29.97 in 10.0 mi North 9.2 mph - N/A   Overcast
3:35 AM 50.0 °F - 39.2 °F 66% 29.97 in 10.0 mi NNW 10.4 mph - N/A   Overcast
3:55 AM 50.0 °F - 37.4 °F 62% 29.97 in 10.0 mi NNW 11.5 mph - N/A   Overcast
4:15 AM 48.2 °F - 37.4 °F 66% 29.98 in 10.0 mi NNW 12.7 mph - N/A   Overcast
4:35 AM 48.2 °F - 37.4 °F 66% 29.98 in 10.0 mi North 9.2 mph - N/A   Overcast
4:55 AM 46.4 °F 41.5 °F 37.4 °F 71% 29.98 in 10.0 mi North 10.4 mph - N/A   Mostly Cloudy
5:15 AM 46.4 °F 41.5 °F 37.4 °F 71% 29.98 in 10.0 mi North 10.4 mph - N/A   Scattered Clouds
5:35 AM 46.4 °F 41.9 °F 37.4 °F 71% 29.98 in 10.0 mi North 9.2 mph - N/A   Scattered Clouds
5:55 AM 46.4 °F 41.5 °F 37.4 °F 71% 29.96 in 10.0 mi North 10.4 mph 18.4 mph N/A   Scattered Clouds
6:15 AM 46.4 °F 41.9 °F 37.4 °F 71% 29.98 in 10.0 mi North 9.2 mph - N/A   Clear
6:35 AM 44.6 °F 40.2 °F 37.4 °F 76% 29.98 in 10.0 mi North 8.1 mph - N/A   Clear
6:55 AM 44.6 °F 39.7 °F 37.4 °F 76% 29.99 in 10.0 mi North 9.2 mph - N/A   Clear
7:15 AM 44.6 °F 39.7 °F 37.4 °F 76% 30.00 in 10.0 mi North 9.2 mph - N/A   Clear
7:35 AM 44.6 °F 40.2 °F 37.4 °F 76% 29.99 in 10.0 mi North 8.1 mph - N/A   Clear
7:55 AM 46.4 °F 42.9 °F 37.4 °F 71% 30.00 in 10.0 mi NNE 6.9 mph - N/A   Clear
8:15 AM 46.4 °F 42.4 °F 37.4 °F 71% 30.01 in 10.0 mi NNE 8.1 mph - N/A   Clear
8:35 AM 48.2 °F - 39.2 °F 71% 30.00 in 10.0 mi NNE 9.2 mph - N/A   Clear
8:55 AM 48.2 °F - 41.0 °F 76% 30.00 in 10.0 mi North 10.4 mph - N/A   Clear
9:15 AM 50.0 °F - 41.0 °F 71% 30.01 in 10.0 mi North 10.4 mph - N/A   Clear
9:35 AM 51.8 °F - 41.0 °F 67% 30.00 in 10.0 mi North 9.2 mph - N/A   Clear
9:55 AM 51.8 °F - 41.0 °F 67% 30.00 in 10.0 mi North 9.2 mph - N/A   Clear
10:15 AM 55.4 °F - 42.8 °F 63% 30.01 in 10.0 mi North 8.1 mph - N/A   Clear
10:35 AM 55.4 °F - 42.8 °F 63% 30.01 in 10.0 mi North 9.2 mph - N/A   Clear
10:55 AM 55.4 °F - 42.8 °F 63% 30.02 in 10.0 mi NNW 6.9 mph - N/A   Clear
11:15 AM 57.2 °F - 42.8 °F 59% 30.02 in 10.0 mi NW 5.8 mph - N/A   Clear
11:35 AM 59.0 °F - 44.6 °F 59% 30.01 in 10.0 mi NNW 5.8 mph - N/A   Clear
11:55 AM 59.0 °F - 44.6 °F 59% 30.00 in 10.0 mi Calm Calm - N/A   Clear
12:15 PM 59.0 °F - 44.6 °F 59% 30.01 in 10.0 mi NW 3.5 mph - N/A   Clear
12:35 PM 60.8 °F - 44.6 °F 55% 30.00 in 10.0 mi Calm Calm - N/A   Clear
12:55 PM 60.8 °F - 44.6 °F 55% 29.98 in 10.0 mi Calm Calm - N/A   Clear
1:15 PM 62.6 °F - 46.4 °F 55% 29.97 in 10.0 mi WNW 4.6 mph - N/A   Clear
1:35 PM 62.6 °F - 46.4 °F 55% 29.96 in 10.0 mi WNW 4.6 mph - N/A   Clear
1:55 PM 62.6 °F - 44.6 °F 52% 29.96 in 10.0 mi West 6.9 mph - N/A   Clear
2:15 PM 64.4 °F - 46.4 °F 52% 29.95 in 10.0 mi WNW 6.9 mph - N/A   Clear
2:35 PM 64.4 °F - 46.4 °F 52% 29.93 in 10.0 mi WNW 4.6 mph - N/A   Clear
2:55 PM 64.4 °F - 44.6 °F 49% 29.93 in 10.0 mi NW 3.5 mph - N/A   Clear
3:15 PM 64.4 °F - 44.6 °F 49% 29.92 in 10.0 mi NNW 5.8 mph - N/A   Clear
3:35 PM 66.2 °F - 44.6 °F 46% 29.91 in 10.0 mi North 9.2 mph - N/A   Clear
3:55 PM 68.0 °F - 44.6 °F 43% 29.91 in 10.0 mi NNW 8.1 mph - N/A   Clear
4:15 PM 66.2 °F - 44.6 °F 46% 29.90 in 10.0 mi NNW 6.9 mph - N/A   Clear
4:35 PM 64.4 °F - 42.8 °F 45% 29.91 in 10.0 mi North 8.1 mph - N/A   Clear
4:55 PM 64.4 °F - 44.6 °F 49% 29.90 in 10.0 mi NNW 3.5 mph - N/A   Clear
5:15 PM 64.4 °F - 44.6 °F 49% 29.90 in 10.0 mi NNE 3.5 mph - N/A   Clear
5:35 PM 64.4 °F - 44.6 °F 49% 29.91 in 10.0 mi North 3.5 mph - N/A   Clear
5:55 PM 62.6 °F - 44.6 °F 52% 29.91 in 10.0 mi Calm Calm - N/A   Clear
6:15 PM 60.8 °F - 44.6 °F 55% 29.91 in 10.0 mi Calm Calm - N/A   Clear
6:35 PM 59.0 °F - 44.6 °F 59% 29.91 in 10.0 mi NE 4.6 mph - N/A   Clear
6:55 PM 59.0 °F - 44.6 °F 59% 29.92 in 10.0 mi ENE 4.6 mph - N/A   Clear
7:15 PM 55.4 °F - 44.6 °F 67% 29.93 in 10.0 mi Calm Calm - N/A   Clear
7:35 PM 55.4 °F - 44.6 °F 67% 29.93 in 10.0 mi Calm Calm - N/A   Clear
7:55 PM 53.6 °F - 44.6 °F 72% 29.93 in 10.0 mi NNE 3.5 mph - N/A   Clear
8:15 PM 55.4 °F - 44.6 °F 67% 29.93 in 10.0 mi NE 3.5 mph - N/A   Clear
8:35 PM 55.4 °F - 42.8 °F 63% 29.94 in 10.0 mi ENE 3.5 mph - N/A   Clear
8:55 PM 51.8 °F - 42.8 °F 71% 29.95 in 10.0 mi NNE 3.5 mph - N/A   Clear
9:15 PM 51.8 °F - 42.8 °F 71% 29.95 in 10.0 mi NE 4.6 mph - N/A   Clear
9:35 PM 50.0 °F - 42.8 °F 76% 29.96 in 10.0 mi Calm Calm - N/A   Clear
10:15 PM 46.4 °F - 42.8 °F 87% 29.96 in 10.0 mi Calm Calm - N/A   Clear
10:35 PM 48.2 °F - 41.0 °F 76% 29.96 in 10.0 mi Calm Calm - N/A   Clear
10:55 PM 48.2 °F - 42.8 °F 82% 29.97 in 10.0 mi Calm Calm - N/A   Clear
11:15 PM 46.4 °F - 42.8 °F 87% 29.96 in 10.0 mi Calm Calm - N/A   Clear
11:35 PM 48.2 °F - 42.8 °F 82% 29.96 in 10.0 mi Calm Calm - N/A   Clear
11:55 PM 44.6 °F - 41.0 °F 87% 29.94 in 10.0 mi Calm Calm - N/A   Clear